Location: Caltech
(34.1382°N, 118.1253°W)
Time: 18:50:26
(UTC-07:00)

Cosmos 1408 Rocket - Visible Passes

Search period start: 26 July 2016 00:00
Search period end: 05 August 2016 00:00
Orbit: 601 x 632 km, 82.6° (Epoch: 26 July)

Date Brightness Start Highest point End Pass type
(mag) Time Alt. Az. Time Alt. Az. Time Alt. Az.
26 Jul 4.3 03:39:07 10° N 03:43:23 49° E 03:45:14 30° SE visible
26 Jul 5.6 05:19:46 10° WNW 05:20:39 11° W 05:21:33 10° W visible
27 Jul 3.4 03:55:31 10° N 03:59:55 82° W 04:00:53 54° S visible
28 Jul 6.2 02:36:14 10° NE 02:38:25 13° ENE 02:39:33 12° E visible
28 Jul 4.0 04:12:14 10° NNW 04:16:21 40° W 04:16:37 40° W visible
29 Jul 5.4 02:51:28 10° NNE 02:55:07 25° ENE 02:55:21 25° E visible
29 Jul 5.0 04:29:24 10° NW 04:32:24 21° W 04:32:24 21° W visible
30 Jul 4.5 03:07:28 10° N 03:11:11 45° ENE 03:11:11 45° ENE visible
30 Jul 5.7 04:47:47 10° WNW 04:48:14 11° WNW 04:48:14 11° WNW visible
31 Jul 4.3 03:23:50 10° N 03:27:04 48° NNW 03:27:04 48° NNW visible
01 Aug 6.4 02:04:39 10° NE 02:05:56 13° ENE 02:05:56 13° ENE visible
01 Aug 4.9 03:40:33 10° NNW 03:43:00 29° NW 03:43:00 29° NW visible
02 Aug 6.0 02:19:50 10° NNE 02:21:54 20° NE 02:21:54 20° NE visible
02 Aug 5.6 03:57:41 10° NW 03:58:58 16° NW 03:58:58 16° NW visible
03 Aug 5.6 02:35:48 10° N 02:37:54 25° NNE 02:37:54 25° NNE visible
04 Aug 5.6 02:52:10 10° N 02:53:56 24° N 02:53:56 24° N visible
